International Virtual Aviation Organisation

Russian Federation and Kazakhstan MCD

 

Карточка аэропорта UWKD

Внимание!
Информация на этой странице в стадии наполнения.
Если вы не увидели какой-то информации, или заметили неточность - пожалуйста сообщите нам!
Спасибо!
Команда RU-STAFF
Название аэропортаКазань
Название аэропорта (англ.)Kazan
Превышение413 ft. (125.9 m.)
Координаты55°36.498', 49°16.668'
Высота перехода900m
Эшелон переходаQFE>=749mm:FL050; QFE<749=>722:FL060; QFE<722:FL070
Коды ответчика6732-6737
Зона ОрВДСамара РПИ (UWWW)
Данные METARUWKD 140730Z 28007G12MPS 9999 BKN027CB 11/05 Q1009 R29/2/0050 TEMPO 28008G15MPS RMK QFE746/0995
Проноз погоды (TAF)UWKD 140500Z 1406/1506 28005G12MPS 9999 BKN015 TX12/1410Z TN06/1502Z TEMPO 1406/1415 28008G15MPS 3100 -SHRA BKN011 BKN015CB BECMG 1418/1420 20003G08MPS TEMPO 1421/1506 16005G12MPS 2100 -SHRA BR BKN006 BKN013CB
NOTAMshow/hide NOTAM
AWOS   TABLE

Информация о ВПП

ВПП Длина ВПП (м.) Покрытие Курс ВПП Частота ILS
113750Цементобетон112110.5
293750Цементобетон292111.7

Диспетчерские позиции

Позывной Наименование органа УВД Частота
UWKD_R_APPКазань-Круг119.400
UWKD_TWRКазань-Старт120.300
UWKD_GNDКазань-Руление121.7



Спутниковое изображение